Grand Marais, MN

1:09 PM CDT on September 21, 2019 (GMT -0500)
Grand Marais

Weather History for KGNA - July, 2019

Change the Weather History Date:

Wednesday, July 17, 2019

  Actual Average (WUND) Record (WUND)
Temperature  
Mean Temperature 60 °F -  
Max Temperature 66 °F - - (-1)
Min Temperature 55 °F - - (-1)
Degree Days  
Heating Degree Days 4    
Growing Degree Days 10 (Base 50)    
Moisture  
Dew Point 57 °F    
Average Humidity 87    
Maximum Humidity 97    
Minimum Humidity 70    
Precipitation  
Precipitation 0.14 in - - ()
Sea Level Pressure  
Sea Level Pressure 29.87 in    
Wind  
Wind Speed 5 mph (NE)    
Max Wind Speed 13 mph    
Max Gust Speed 22 mph    
Averages and records for this station are not official NWS values.
T = Trace of Precipitation, MM = Missing Value Source: NWS Daily Summary

Daily Weather History Graph

Daily Weather History Graph

Search for Another Location

Airport or City:

Astronomy

Jul. 17, 2019 Rise Set
Actual Time 5:20 AM CDT 8:53 PM CDT
Civil Twilight 4:41 AM CDT 9:32 PM CDT
Nautical Twilight 3:49 AM CDT 10:23 PM CDT
Astronomical Twilight 2:39 AM CDT 11:33 PM CDT
Moon 9:40 PM CDT (7/17) 5:53 AM CDT (7/17)
Length of Visible Light 16h 50m
Length of Day
15h 33m
Full, 99% of the Moon is Illuminated
Jul 17
Full
Jul 24
Last Quarter
Jul 31
New
Aug 7
First Quarter
Aug 15
Full

Hourly Weather History & Observations

Time (CDT) Temp. Dew Point Humidity Pressure Visibility Wind Dir Wind Speed Gust Speed Precip Events Conditions
12:56 AM 55.9 °F 55.0 °F 97% 29.90 in - Calm Calm - N/A   Unknown
1:56 AM 62.1 °F 57.0 °F 84% 29.89 in - NE 3.5 mph - N/A   Unknown
2:56 AM 66.9 °F 57.0 °F 70% 29.89 in - Calm Calm - N/A   Unknown
3:56 AM 57.9 °F 55.0 °F 90% 29.91 in - NE 4.6 mph - N/A   Unknown
4:56 AM 57.0 °F 55.0 °F 93% 29.93 in - ENE 4.6 mph - N/A   Unknown
5:56 AM 60.1 °F 55.9 °F 86% 29.93 in - Calm Calm - N/A   Unknown
6:56 AM 55.9 °F 54.0 °F 93% 29.93 in - NE 4.6 mph - N/A   Unknown
7:56 AM 57.9 °F 55.0 °F 90% 29.95 in - ENE 6.9 mph - N/A   Unknown
8:56 AM 61.0 °F 55.0 °F 81% 29.95 in - ENE 4.6 mph - N/A   Unknown
9:56 AM 61.0 °F 55.9 °F 83% 29.94 in - ENE 12.7 mph - N/A   Unknown
10:56 AM 57.9 °F 53.1 °F 84% 29.94 in - ENE 10.4 mph - N/A   Unknown
11:56 AM 59.0 °F 55.0 °F 87% 29.94 in - ENE 11.5 mph - N/A   Unknown
12:56 PM 61.0 °F 57.0 °F 87% 29.92 in - ENE 11.5 mph - N/A   Unknown
1:56 PM 60.1 °F 55.0 °F 83% 29.90 in - ENE 11.5 mph - N/A   Unknown
2:56 PM 59.0 °F 54.0 °F 83% 29.88 in - ENE 10.4 mph - N/A   Unknown
3:56 PM 57.9 °F 55.0 °F 90% 29.87 in - ENE 10.4 mph - 0.02 in   Unknown
4:56 PM 59.0 °F 57.0 °F 93% 29.87 in - ENE 6.9 mph - N/A   Unknown
5:56 PM 64.0 °F 60.1 °F 87% 29.84 in - NE 12.7 mph - 0.04 in   Unknown
6:56 PM 64.9 °F 59.0 °F 81% 29.81 in - NE 11.5 mph 20.7 mph 0.01 in   Unknown
7:56 PM 63.0 °F 59.0 °F 87% 29.80 in - Variable 6.9 mph 17.3 mph 0.02 in   Unknown
8:56 PM 64.0 °F 57.9 °F 80% 29.73 in - NE 12.7 mph 19.6 mph N/A   Unknown
9:56 PM 64.0 °F 61.0 °F 90% 29.74 in - Variable 4.6 mph 21.9 mph 0.05 in   Unknown
10:56 PM 62.1 °F 60.1 °F 93% 29.73 in - NNE 3.5 mph - N/A   Unknown
11:56 PM 63.0 °F 62.1 °F 97% 29.73 in - Calm Calm - N/A   Unknown